PST,Max TemperatureF,Mean TemperatureF,Min TemperatureF,Max Dew PointF,MeanDew PointF,Min DewpointF,Max Humidity, Mean Humidity, Min Humidity, Max Sea Level PressureIn, Mean Sea Level PressureIn, Min Sea Level PressureIn, Max VisibilityMiles, Mean VisibilityMiles, Min VisibilityMiles, Max Wind SpeedMPH, Mean Wind SpeedMPH, Max Gust SpeedMPH,PrecipitationIn, CloudCover, Events, WindDirDegrees
2013-12-1,68,53,37,45,42,37,96,69,42,30.36,30.28,30.22,10,9,6,8,0,9,0.00,0,,240
2013-12-2,65,51,37,48,43,36,100,74,48,30.22,30.07,29.90,10,8,2,14,2,20,0.00,0,,163
2013-12-3,57,54,50,52,32,15,93,57,20,29.93,29.86,29.82,10,10,10,23,9,29,0.00,2,,298
2013-12-4,50,43,35,23,17,11,54,38,21,30.09,30.03,29.94,10,10,10,21,9,26,0.00,0,,322
2013-12-5,50,39,28,22,17,12,63,44,24,30.18,30.14,30.09,10,10,6,13,5,15,0.00,0,,342
2013-12-6,47,36,25,36,27,20,88,69,49,30.22,30.11,29.93,10,9,4,18,5,26,0.42,4,Rain,143
2013-12-7,47,39,30,37,32,24,100,73,45,30.26,30.06,29.91,10,6,0,21,7,29,0.01,2,Fog,253
2013-12-8,44,35,25,27,24,21,85,64,43,30.35,30.30,30.25,10,10,9,13,5,16,0.00,0,,331
2013-12-9,48,35,22,27,24,20,88,64,39,30.45,30.40,30.34,10,10,6,12,2,15,0.00,0,,60
2013-12-10,51,38,25,30,26,24,92,64,35,30.44,30.32,30.23,10,9,5,7,1,14,0.00,0,,323
2013-12-11,56,42,27,32,28,25,92,62,32,30.30,30.24,30.21,10,8,6,7,0,14,0.00,0,,180
2013-12-12,58,43,27,34,31,26,100,68,35,30.30,30.24,30.18,10,8,2,8,1,10,0.00,0,,6
2013-12-13,61,46,30,34,32,29,96,64,32,30.34,30.28,30.25,10,9,5,9,2,16,0.00,0,,324
2013-12-14,60,45,30,36,33,29,92,66,40,30.44,30.37,30.33,10,7,4,6,1,10,0.00,0,,308
2013-12-15,61,45,29,37,32,28,100,68,36,30.40,30.35,30.27,10,4,0,6,0,7,0.00,0,Fog,301
2013-12-16,64,48,31,38,35,30,100,68,36,30.27,30.22,30.16,10,6,2,5,0,7,0.00,0,,220
2013-12-17,64,51,37,41,38,35,92,68,43,30.21,30.14,30.04,10,8,5,8,0,23,0.00,0,,335
2013-12-18,59,48,37,45,40,37,92,68,44,30.04,29.88,29.71,10,9,7,10,1,12,0.00,0,,204
2013-12-19,61,50,38,43,29,18,100,61,22,29.91,29.79,29.69,10,9,5,30,10,42,0.00,1,,339
2013-12-20,63,51,39,33,19,12,37,26,14,30.02,29.97,29.92,10,10,10,20,9,24,0.00,0,,3
2013-12-21,60,47,33,36,33,30,89,64,39,30.12,30.03,29.98,10,9,6,9,1,13,0.00,0,,7
2013-12-22,62,47,32,37,34,31,89,63,36,30.31,30.23,30.12,8,6,5,5,0,6,0.00,0,,170
2013-12-23,64,49,33,39,36,32,100,68,36,30.43,30.37,30.31,9,6,4,7,1,20,0.00,0,,337
2013-12-24,65,50,35,40,37,33,92,65,37,30.35,30.29,30.22,10,5,2,7,0,10,0.00,0,,340
2013-12-25,64,49,33,41,37,32,100,70,40,30.34,30.28,30.22,10,5,1,8,0,9,0.00,0,,330
2013-12-26,66,49,31,40,34,30,100,67,34,30.30,30.26,30.20,10,5,0,6,0,7,0.00,0,Fog,3
2013-12-27,58,45,31,37,34,30,96,68,40,30.28,30.21,30.14,10,9,5,6,1,8,0.00,0,,351
2013-12-28,70,50,30,35,30,26,100,60,20,30.15,30.10,30.01,10,9,2,17,2,24,0.00,0,,328
2013-12-29,62,46,30,38,33,28,85,61,36,30.22,30.16,30.11,10,7,4,7,0,9,0.00,0,,157
2013-12-30,62,47,31,37,34,30,100,68,36,30.28,30.24,30.21,10,5,1,6,0,7,0.00,0,,7
2013-12-31,65,51,36,38,34,29,92,61,30,30.28,30.21,30.16,10,8,5,9,1,12,0.00,0,,339